Location: Cactus School
(34.5700°N, 118.0931°W)
Time: 10:10:50
(UTC-07:00)

Explorer 11/Cluster Stage 4 - Visible Passes

Search period start: 23 April 2024 00:00
Search period end: 03 May 2024 00:00
Orbit: 465 x 1219 km, 28.8° (Epoch: 23 April)

Date Brightness Start Highest point End Pass type
(mag) Time Alt. Az. Time Alt. Az. Time Alt. Az.
23 Apr 7.5 04:35:54 27° SSW 04:36:19 27° SSW 04:41:25 10° SE visible
24 Apr 7.9 04:20:12 22° S 04:20:12 22° S 04:23:38 10° SE visible
25 Apr 8.5 04:04:35 14° SSE 04:04:35 14° SSE 04:05:48 10° SSE visible
28 Apr 8.0 21:27:25 10° SW 21:28:11 13° SSW 21:28:11 13° SSW visible
29 Apr 7.2 21:09:54 10° SW 21:12:27 22° S 21:12:27 22° S visible
30 Apr 6.8 20:52:21 10° SW 20:56:00 27° S 20:56:36 25° SSE visible
01 May 6.9 20:34:45 10° SW 20:38:44 29° S 20:40:39 20° SE visible
02 May 6.9 20:17:07 10° SW 20:21:26 32° S 20:24:36 13° ESE visible
02 May 8.1 22:05:08 10° WSW 22:06:18 17° WSW 22:06:18 17° WSW visible
